Location: Roc des P�zouls
(43.9667°N, 3.5500°E)
Time: 08:04:50
(UTC+00:00)

Cosmos 1680 Rocket - Pass Details

Date: 14 November 2019
Orbit: 759 x 782 km, 74.1° (Epoch: 11 December)

Event Time Altitude Azimuth Distance (km) Brightness Sun altitude
Exits shadow 04:43:01 25° 332° (NNW) 1,552 4.8 -20.8°
Maximum altitude 04:46:12 72° 253° (WSW) 822 3.4 -20.3°
Drops below altitude 10° 04:51:28 10° 169° (S) 2,327 6.2 -19.3°
Sets 04:53:51 0° 168° (SSE) 3,252 7.0 -18.9°
